カタログに戻る

CAPELLA-15

ACADIA

運用中科学SSO
NORAD 60544·PAYLOAD·🇺🇸 United States

打ち上げ Aug 16, 2024 から Vandenberg Space Force Base

Loading…

次のパス (今後24時間)

TLE

最新Source: Space-Track

元期: Sep 14, 2026, 15:06 UTC

1 60544U 24149CE  26257.62983777  .00000545  00000-0  58705-4 0  9993
2 60544  97.6695 328.2633 0005401 121.8194 238.3552 14.92329855113197

AllMySatでCAPELLA-15をリアルタイム追跡

Download on the App Store